DW8088 Weather Reports


Display with metric or nautical units.
time (UTC)temp
F
wind
direction
speed
MPH
gust
MPH
rain 1hr
in
rain 24hr
in
rain mn
in
humidity
%
barometer
mb
20190222231302 37 74 1.0 3.0 0.00 0.00 0.00 81 1026.0
20190222230803 38 71 0.0 0.0 0.00 0.00 0.00 80 1026.0
20190222230302 38 64 0.0 0.0 0.00 0.00 0.00 79 1026.3
20190222225802 39 62 0.0 0.0 0.00 0.00 0.00 77 1026.3
20190222225302 40 65 0.0 3.0 0.00 0.00 0.00 76 1026.3
20190222224803 40 69 2.0 5.0 0.00 0.00 0.00 76 1026.3
20190222224303 41 77 2.0 5.0 0.00 0.00 0.00 76 1026.5
20190222223803 41 84 3.0 5.0 0.00 0.00 0.00 74 1026.6
20190222223303 41 74 3.0 7.0 0.00 0.00 0.00 74 1026.7
20190222222803 41 83 3.0 7.0 0.00 0.00 0.00 73 1026.7
20190222222303 42 79 1.0 6.0 0.00 0.00 0.00 73 1026.8
20190222221803 42 86 3.0 6.0 0.00 0.00 0.00 72 1026.7
20190222221303 42 79 3.0 6.0 0.00 0.00 0.00 72 1026.8
20190222220804 42 77 5.0 7.0 0.00 0.00 0.00 71 1026.8
20190222220303 42 72 3.0 6.0 0.00 0.00 0.00 71 1026.9
20190222215803 42 73 4.0 8.0 0.00 0.00 0.00 70 1026.9
20190222215303 42 77 3.0 7.0 0.00 0.00 0.00 71 1027.0
20190222214803 42 83 3.0 7.0 0.00 0.00 0.00 69 1026.9
20190222214302 42 82 3.0 7.0 0.00 0.00 0.00 70 1026.9
20190222213803 42 79 3.0 6.0 0.00 0.00 0.00 70 1027.0
20190222213303 42 74 5.0 7.0 0.00 0.00 0.00 68 1027.0
20190222212802 42 86 2.0 6.0 0.00 0.00 0.00 70 1027.1
20190222212303 42 72 3.0 8.0 0.00 0.00 0.00 69 1027.1
20190222211804 43 95 4.0 7.0 0.00 0.00 0.00 69 1027.0
20190222211303 43 66 3.0 6.0 0.00 0.00 0.00 69 1027.0
20190222210803 43 75 3.0 7.0 0.00 0.00 0.00 70 1026.9
20190222210302 43 81 3.0 6.0 0.00 0.00 0.00 69 1026.8
20190222205803 42 71 3.0 7.0 0.00 0.00 0.00 70 1026.7
20190222205303 42 53 4.0 8.0 0.00 0.00 0.00 70 1026.7
20190222204803 42 56 2.0 6.0 0.00 0.00 0.00 69 1026.8
20190222204303 42 69 3.0 5.0 0.00 0.00 0.00 70 1026.9
20190222203803 42 73 5.0 8.0 0.00 0.00 0.00 68 1026.9
20190222203303 42 54 4.0 7.0 0.00 0.00 0.00 70 1026.9
20190222202802 42 85 3.0 8.0 0.00 0.00 0.00 69 1027.1
20190222202303 42 64 2.0 8.0 0.00 0.00 0.00 69 1027.2
20190222201803 42 78 2.0 6.0 0.00 0.00 0.00 68 1027.2
20190222201303 42 73 4.0 7.0 0.00 0.00 0.00 70 1027.2
20190222200802 42 57 3.0 6.0 0.00 0.00 0.00 71 1027.2
20190222200303 42 56 3.0 7.0 0.00 0.00 0.00 69 1027.2
20190222195803 42 49 2.0 3.0 0.00 0.00 0.00 69 1027.4
20190222195303 42 70 1.0 5.0 0.00 0.00 0.00 68 1027.5
20190222194802 42 72 2.0 5.0 0.00 0.00 0.00 71 1027.7
20190222194303 41 68 2.0 5.0 0.00 0.00 0.00 70 1027.7
20190222193803 41 64 2.0 5.0 0.00 0.00 0.00 69 1027.8
20190222193302 41 69 3.0 7.0 0.00 0.00 0.00 70 1027.9
20190222192802 41 75 2.0 5.0 0.00 0.00 0.00 70 1028.0
20190222192303 41 56 1.0 6.0 0.00 0.00 0.00 69 1028.0
20190222191803 41 53 1.0 3.0 0.00 0.00 0.00 70 1028.0
20190222191303 41 66 2.0 5.0 0.00 0.00 0.00 71 1028.0
20190222190803 41 45 0.0 2.0 0.00 0.00 0.00 71 1028.3
20190222190303 41 52 0.0 5.0 0.00 0.00 0.00 70 1028.4
20190222185803 41 65 1.0 3.0 0.00 0.00 0.00 71 1028.2
20190222185303 41 83 0.0 7.0 0.00 0.00 0.00 69 1028.3
20190222184803 40 60 1.0 5.0 0.00 0.00 0.00 71 1028.3
20190222184302 40 62 0.0 3.0 0.00 0.00 0.00 71 1028.4
20190222183803 40 57 2.0 5.0 0.00 0.00 0.00 71 1028.4
20190222183303 40 73 1.0 5.0 0.00 0.00 0.00 73 1028.6
20190222182802 40 84 1.0 5.0 0.00 0.00 0.00 71 1028.7
20190222182303 40 61 1.0 3.0 0.00 0.00 0.00 73 1028.6
20190222181803 39 52 1.0 5.0 0.00 0.00 0.00 75 1028.7
20190222181303 39 51 1.0 2.0 0.00 0.00 0.00 74 1028.7
20190222180803 39 81 1.0 7.0 0.00 0.00 0.00 71 1028.7
20190222180303 39 70 3.0 6.0 0.00 0.00 0.00 73 1028.7
20190222175803 39 91 0.0 7.0 0.00 0.00 0.00 74 1028.8
20190222175303 39 77 3.0 8.0 0.00 0.00 0.00 75 1028.8
20190222174803 39 76 1.0 5.0 0.00 0.00 0.00 74 1029.0
20190222174304 39 78 3.0 6.0 0.00 0.00 0.00 73 1029.1
20190222173803 39 74 2.0 3.0 0.00 0.00 0.00 75 1029.0
20190222173303 39 51 3.0 7.0 0.00 0.00 0.00 73 1029.0
20190222172803 39 92 2.0 7.0 0.00 0.00 0.00 74 1028.9
20190222172302 38 63 3.0 7.0 0.00 0.00 0.00 74 1028.9
20190222171803 38 67 2.0 7.0 0.00 0.00 0.00 72 1029.2
20190222171304 38 58 1.0 8.0 0.00 0.00 0.00 73 1029.5
20190222170804 38 71 2.0 5.0 0.00 0.00 0.00 76 1029.4
20190222170303 38 80 2.0 6.0 0.00 0.00 0.00 75 1029.3
20190222165804 38 102 2.0 5.0 0.00 0.00 0.00 76 1029.2
20190222165303 37 94 2.0 5.0 0.00 0.00 0.00 75 1029.4
20190222164803 37 113 2.0 6.0 0.00 0.00 0.00 75 1029.5
20190222164303 37 87 2.0 5.0 0.00 0.00 0.00 75 1029.6
20190222163803 37 91 2.0 7.0 0.00 0.00 0.00 75 1029.8
20190222163303 37 128 3.0 7.0 0.00 0.00 0.00 76 1029.8
20190222162803 36 104 3.0 6.0 0.00 0.00 0.00 76 1029.9
20190222162303 36 110 1.0 5.0 0.00 0.00 0.00 78 1029.8
20190222161803 36 100 2.0 7.0 0.00 0.00 0.00 77 1029.6
20190222161304 35 74 1.0 5.0 0.00 0.00 0.00 78 1029.6
20190222160803 35 86 2.0 6.0 0.00 0.00 0.00 77 1029.7
20190222160303 35 111 2.0 5.0 0.00 0.00 0.00 78 1029.7
20190222155803 35 117 1.0 5.0 0.00 0.00 0.00 79 1029.6
20190222155303 35 96 1.0 5.0 0.00 0.00 0.00 80 1029.4
20190222154803 34 103 2.0 5.0 0.00 0.00 0.00 81 1029.3
20190222154303 34 97 2.0 5.0 0.00 0.00 0.00 82 1029.5
20190222153803 34 118 1.0 5.0 0.00 0.00 0.00 82 1029.5
20190222153302 33 87 3.0 7.0 0.00 0.00 0.00 82 1029.6
20190222152804 33 95 2.0 6.0 0.00 0.00 0.00 82 1029.7
20190222152304 33 88 3.0 6.0 0.00 0.00 0.00 83 1029.7
20190222151804 32 85 2.0 6.0 0.00 0.00 0.00 83 1029.8
20190222151304 32 89 2.0 8.0 0.00 0.00 0.00 84 1029.8
20190222150803 32 81 1.0 5.0 0.00 0.00 0.00 85 1029.7
20190222150303 32 75 3.0 5.0 0.00 0.00 0.00 86 1029.7
20190222145803 31 83 0.0 3.0 0.00 0.00 0.00 86 1029.5
20190222145303 31 73 1.0 3.0 0.00 0.00 0.00 86 1029.6
20190222144803 31 91 1.0 3.0 0.00 0.00 0.00 87 1029.5
20190222144303 31 70 2.0 3.0 0.00 0.00 0.00 88 1029.5
20190222143803 30 80 0.0 2.0 0.00 0.00 0.00 88 1029.7
20190222143303 30 85 0.0 3.0 0.00 0.00 0.00 88 1029.8
20190222142803 29 54 1.0 3.0 0.00 0.00 0.00 87 1029.7
20190222142303 29 51 1.0 3.0 0.00 0.00 0.00 87 1029.7
20190222141803 29 62 0.0 3.0 0.00 0.00 0.00 88 1029.7
20190222141303 29 93 0.0 0.0 0.00 0.00 0.00 88 1029.7
20190222140803 28 90 0.0 0.0 0.00 0.00 0.00 88 1029.7
20190222140303 28 70 0.0 1.0 0.00 0.00 0.00 88 1029.7
20190222135803 28 76 0.0 0.0 0.00 0.00 0.00 88 1029.6
20190222135304 27 76 0.0 0.0 0.00 0.00 0.00 88 1029.5
20190222134804 27 81 0.0 0.0 0.00 0.00 0.00 89 1029.4
20190222134303 27 62 0.0 0.0 0.00 0.00 0.00 89 1029.5
20190222133802 26 60 0.0 3.0 0.00 0.00 0.00 89 1029.5
20190222133304 26 67 5.0 7.0 0.00 0.00 0.00 89 1029.4
20190222132803 26 43 2.0 3.0 0.00 0.00 0.00 90 1029.4
20190222132303 25 34 2.0 3.0 0.00 0.00 0.00 90 1029.6
20190222131803 25 34 3.0 5.0 0.00 0.00 0.00 90 1029.5
20190222131303 24 42 3.0 3.0 0.00 0.00 0.00 90 1029.4
20190222130803 24 36 1.0 3.0 0.00 0.00 0.00 90 1029.5
20190222130304 23 32 2.0 3.0 0.00 0.00 0.00 90 1029.3
20190222125803 23 37 2.0 3.0 0.00 0.00 0.00 89 1029.1
20190222125303 23 37 2.0 3.0 0.00 0.00 0.00 89 1028.8
20190222124803 23 38 2.0 3.0 0.00 0.00 0.00 89 1028.9
20190222124304 23 32 3.0 5.0 0.00 0.00 0.00 89 1028.8
20190222123803 23 24 4.0 6.0 0.00 0.00 0.00 89 1029.1
20190222123303 23 24 2.0 3.0 0.00 0.00 0.00 89 1029.5
20190222122804 24 17 2.0 3.0 0.00 0.00 0.00 89 1029.5
20190222122304 24 15 2.0 3.0 0.00 0.00 0.00 89 1029.5
20190222121803 24 13 3.0 5.0 0.00 0.00 0.00 89 1029.4
20190222121304 24 358 3.0 7.0 0.00 0.00 0.00 89 1029.1
20190222120803 24 5 4.0 6.0 0.00 0.00 0.00 89 1029.2
20190222120304 24 357 3.0 5.0 0.00 0.00 0.00 89 1029.2
20190222115803 24 351 3.0 5.0 0.00 0.00 0.00 89 1029.2
20190222115303 24 338 3.0 5.0 0.00 0.00 0.00 89 1029.2
20190222114804 24 342 4.0 5.0 0.00 0.00 0.00 89 1029.2
20190222114303 24 341 3.0 5.0 0.00 0.00 0.00 89 1029.3
20190222113803 24 359 1.0 5.0 0.00 0.00 0.00 89 1029.1
20190222113303 24 26 3.0 5.0 0.00 0.00 0.00 89 1028.7
20190222112804 24 24 3.0 5.0 0.00 0.00 0.00 89 1028.6
20190222112305 24 34 3.0 5.0 0.00 0.00 0.00 89 1028.5
20190222111804 24 44 3.0 5.0 0.00 0.00 0.00 89 1028.4
20190222111303 24 52 4.0 6.0 0.00 0.00 0.00 89 1028.3
20190222110803 24 40 3.0 5.0 0.00 0.00 0.00 88 1028.7
20190222110303 24 31 4.0 6.0 0.00 0.00 0.00 88 1029.0
20190222105803 24 29 3.0 5.0 0.00 0.00 0.00 88 1028.8
20190222105303 24 29 3.0 5.0 0.00 0.00 0.00 89 1028.7
20190222104803 25 35 3.0 6.0 0.00 0.00 0.00 88 1028.7
20190222104303 25 11 3.0 5.0 0.00 0.00 0.00 88 1028.8
20190222103804 25 5 2.0 3.0 0.00 0.00 0.00 88 1028.9
20190222103303 25 347 2.0 5.0 0.00 0.00 0.00 88 1028.8
20190222102803 25 355 2.0 3.0 0.00 0.00 0.00 88 1028.8
20190222102306 25 349 3.0 6.0 0.00 0.00 0.00 89 1028.8
20190222101804 25 344 3.0 5.0 0.00 0.00 0.00 89 1028.8
20190222101303 25 353 4.0 6.0 0.00 0.00 0.00 89 1028.6
20190222100804 25 351 3.0 6.0 0.00 0.00 0.00 89 1028.6
20190222100304 25 354 3.0 5.0 0.00 0.00 0.00 89 1028.6
20190222095803 25 345 3.0 5.0 0.00 0.00 0.00 89 1028.5
20190222095305 25 340 3.0 6.0 0.00 0.00 0.00 89 1028.5
20190222094804 25 341 3.0 5.0 0.00 0.00 0.00 89 1028.3
20190222094304 25 350 3.0 5.0 0.00 0.00 0.00 88 1028.5
20190222093804 25 356 3.0 5.0 0.00 0.00 0.00 88 1028.5
20190222093303 26 347 2.0 3.0 0.00 0.00 0.00 89 1028.7
20190222092803 26 343 3.0 3.0 0.00 0.00 0.00 89 1028.6
20190222092305 26 340 2.0 3.0 0.00 0.00 0.00 88 1028.6
20190222091804 26 340 2.0 3.0 0.00 0.00 0.00 89 1028.5
20190222091303 26 339 2.0 5.0 0.00 0.00 0.00 89 1028.4
20190222090803 26 347 2.0 5.0 0.00 0.00 0.00 89 1028.3
20190222090303 26 355 2.0 3.0 0.00 0.00 0.00 89 1028.1
20190222085803 26 343 3.0 5.0 0.00 0.00 0.00 89 1028.1
20190222085305 26 346 2.0 3.0 0.00 0.00 0.00 88 1028.1
20190222084803 26 340 3.0 3.0 0.00 0.00 0.00 88 1028.2
20190222084303 26 345 3.0 5.0 0.00 0.00 0.00 88 1028.1
20190222083803 26 347 2.0 3.0 0.00 0.00 0.00 88 1028.2
20190222083304 26 350 2.0 3.0 0.00 0.00 0.00 88 1028.0
20190222082306 26 355 3.0 5.0 0.00 0.00 0.00 88 1028.1
20190222081804 26 358 3.0 5.0 0.00 0.00 0.00 88 1028.0
20190222081304 26 354 2.0 5.0 0.00 0.00 0.00 88 1028.0
20190222080803 26 0 2.0 3.0 0.00 0.00 0.00 88 1027.8
20190222080304 27 350 2.0 3.0 0.00 0.00 0.00 88 1028.2
20190222075804 27 342 2.0 3.0 0.00 0.00 0.00 87 1028.2
20190222075305 27 337 1.0 3.0 0.00 0.00 0.00 87 1028.2
20190222074803 27 343 2.0 5.0 0.00 0.00 0.00 87 1028.0
20190222074304 27 338 3.0 5.0 0.00 0.00 0.00 87 1028.0
20190222073804 27 348 3.0 5.0 0.00 0.00 0.00 87 1028.0
20190222073304 27 352 3.0 6.0 0.00 0.00 0.00 86 1027.9
20190222072803 27 350 2.0 5.0 0.00 0.00 0.00 86 1027.9
20190222072305 27 342 3.0 5.0 0.00 0.00 0.00 86 1027.9
20190222071804 27 339 3.0 5.0 0.00 0.00 0.00 85 1027.9
20190222071303 27 340 2.0 3.0 0.00 0.00 0.00 85 1027.8
20190222070804 27 317 2.0 3.0 0.00 0.00 0.00 85 1027.8
20190222070303 27 331 1.0 3.0 0.00 0.00 0.00 85 1027.8
20190222065803 27 328 1.0 3.0 0.00 0.00 0.00 84 1027.6
20190222065303 27 325 1.0 3.0 0.00 0.00 0.00 84 1027.5
20190222064804 27 315 1.0 3.0 0.00 0.00 0.00 84 1027.4
20190222064303 27 332 0.0 2.0 0.00 0.00 0.00 84 1027.3
20190222063804 27 332 1.0 2.0 0.00 0.00 0.00 84 1027.2
20190222063303 27 332 1.0 2.0 0.00 0.00 0.00 84 1027.0
20190222062805 27 332 1.0 3.0 0.00 0.00 0.00 84 1027.0
20190222062304 27 340 0.0 3.0 0.00 0.00 0.00 85 1026.8
20190222061803 27 340 2.0 3.0 0.00 0.00 0.00 84 1026.7
20190222061303 27 339 2.0 3.0 0.00 0.00 0.00 84 1026.6
20190222060815 27 315 1.0 3.0 0.00 0.00 0.00 84 1026.6
20190222060304 28 335 0.0 0.0 0.00 0.00 0.00 84 1026.5
20190222055804 28 335 1.0 2.0 0.00 0.00 0.00 84 1026.3
20190222055303 28 335 0.0 2.0 0.00 0.00 0.00 84 1026.3
20190222054804 28 335 0.0 3.0 0.00 0.00 0.00 84 1026.3
20190222054304 28 345 2.0 5.0 0.00 0.00 0.00 84 1026.3
20190222053804 28 336 2.0 3.0 0.00 0.00 0.00 84 1026.1
20190222053304 28 340 2.0 3.0 0.00 0.00 0.00 84 1025.9
20190222052804 28 342 1.0 3.0 0.00 0.00 0.00 84 1026.0
20190222052304 28 341 2.0 3.0 0.00 0.00 0.00 83 1025.9
20190222051804 28 332 0.0 1.0 0.00 0.00 0.00 82 1026.0
20190222051304 28 332 1.0 3.0 0.00 0.00 0.00 82 1026.0
20190222050803 29 340 1.0 6.0 0.00 0.00 0.00 82 1025.9
20190222050303 29 340 3.0 3.0 0.00 0.00 0.00 82 1026.0
20190222045805 29 336 2.0 3.0 0.00 0.00 0.00 81 1026.0
20190222045304 29 337 1.0 3.0 0.00 0.00 0.00 80 1025.9
20190222044804 29 327 1.0 3.0 0.00 0.00 0.00 80 1025.9
20190222044304 29 317 2.0 3.0 0.00 0.00 0.00 79 1025.8
20190222043804 29 331 2.0 3.0 0.00 0.00 0.00 79 1025.8
20190222043304 30 340 2.0 5.0 0.00 0.00 0.00 78 1025.7
20190222042804 30 321 1.0 3.0 0.00 0.00 0.00 77 1025.8
20190222042304 30 303 1.0 3.0 0.00 0.00 0.00 77 1025.7
20190222041805 30 325 1.0 3.0 0.00 0.00 0.00 77 1025.8
20190222041304 30 304 1.0 3.0 0.00 0.00 0.00 77 1025.8
20190222040804 30 292 0.0 2.0 0.00 0.00 0.00 77 1025.7
20190222040304 30 291 0.0 1.0 0.00 0.00 0.00 77 1025.7
20190222035804 30 291 0.0 0.0 0.00 0.00 0.00 77 1025.7
20190222035304 30 291 0.0 0.0 0.00 0.00 0.00 77 1025.6
20190222034804 30 291 0.0 0.0 0.00 0.00 0.00 77 1025.6
20190222034304 30 291 0.0 1.0 0.00 0.00 0.00 77 1025.6
20190222033804 30 291 0.0 1.0 0.00 0.00 0.00 77 1025.6
20190222033304 30 291 0.0 1.0 0.00 0.00 0.00 77 1025.6
20190222032804 30 291 0.0 2.0 0.00 0.00 0.00 76 1025.8
20190222032304 31 290 0.0 1.0 0.00 0.00 0.00 76 1025.8
20190222031805 31 290 0.0 2.0 0.00 0.00 0.00 76 1025.6
20190222031304 31 290 0.0 2.0 0.00 0.00 0.00 76 1025.7
20190222030804 31 286 0.0 2.0 0.00 0.00 0.00 77 1025.7
20190222030304 31 284 0.0 0.0 0.00 0.00 0.00 77 1025.9
20190222025804 31 284 0.0 0.0 0.00 0.00 0.00 77 1025.7
20190222025304 31 284 0.0 0.0 0.00 0.00 0.00 77 1025.8
20190222024804 31 284 0.0 0.0 0.00 0.00 0.00 76 1025.8
20190222024304 31 284 0.0 0.0 0.00 0.00 0.00 76 1025.7
20190222023804 31 284 0.0 0.0 0.00 0.00 0.00 77 1025.7
20190222023304 31 284 0.0 0.0 0.00 0.00 0.00 77 1025.7
20190222022804 31 284 0.0 0.0 0.00 0.00 0.00 77 1025.8
20190222022304 31 284 0.0 0.0 0.00 0.00 0.00 77 1025.7
20190222021805 31 284 0.0 1.0 0.00 0.00 0.00 77 1025.7
20190222021305 31 284 0.0 0.0 0.00 0.00 0.00 77 1025.7
20190222020804 31 284 0.0 2.0 0.00 0.00 0.00 77 1025.6
20190222020305 31 284 0.0 3.0 0.00 0.00 0.00 77 1025.6
20190222015805 31 296 1.0 3.0 0.00 0.00 0.00 77 1025.7
20190222015304 31 273 0.0 1.0 0.00 0.00 0.00 77 1025.5
20190222014804 31 273 0.0 2.0 0.00 0.00 0.00 76 1025.3
20190222014304 31 273 0.0 1.0 0.00 0.00 0.00 76 1025.3
20190222013805 31 273 0.0 2.0 0.00 0.00 0.00 76 1025.2
20190222013303 31 272 1.0 3.0 0.00 0.00 0.00 76 1025.2
20190222012804 31 279 0.0 2.0 0.00 0.00 0.00 75 1024.9
20190222012304 31 279 0.0 2.0 0.00 0.00 0.00 75 1025.0
20190222011804 31 275 0.0 2.0 0.00 0.00 0.00 75 1025.0
20190222011304 31 274 0.0 2.0 0.00 0.00 0.00 75 1025.0
20190222010804 31 276 1.0 2.0 0.00 0.00 0.00 75 1025.0
20190222010305 31 277 0.0 3.0 0.00 0.00 0.00 75 1024.8
20190222005804 31 275 1.0 3.0 0.00 0.00 0.00 75 1024.8
20190222005304 31 271 1.0 3.0 0.00 0.00 0.00 75 1024.7
20190222004804 31 263 1.0 3.0 0.00 0.00 0.00 75 1024.7
20190222004304 31 270 1.0 3.0 0.00 0.00 0.00 75 1024.8
20190222003804 31 258 1.0 3.0 0.00 0.00 0.00 75 1024.7
20190222003304 31 248 1.0 3.0 0.00 0.00 0.00 75 1024.9
20190222002804 31 241 1.0 3.0 0.00 0.00 0.00 74 1024.8
20190222002304 31 263 1.0 3.0 0.00 0.00 0.00 74 1024.8
20190222001804 31 261 1.0 3.0 0.00 0.00 0.00 74 1024.9
20190222001304 31 259 2.0 3.0 0.00 0.00 0.00 73 1024.8
20190222000804 31 249 1.0 3.0 0.00 0.00 0.00 73 1024.8
20190222000304 31 244 1.0 5.0 0.00 0.00 0.00 73 1024.8
20190221235804 32 254 1.0 3.0 0.00 0.00 0.00 73 1024.8
20190221235304 32 266 1.0 3.0 0.00 0.00 0.00 73 1024.7
20190221234805 32 266 2.0 5.0 0.00 0.00 0.00 73 1024.8
20190221234303 32 264 1.0 3.0 0.00 0.00 0.00 73 1024.8
20190221233804 32 269 2.0 3.0 0.00 0.00 0.00 72 1024.9
20190221233305 32 277 2.0 5.0 0.00 0.00 0.00 72 1024.9
20190221232804 32 285 2.0 6.0 0.00 0.00 0.00 72 1024.8
20190221232304 32 276 1.0 5.0 0.00 0.00 0.00 71 1024.8
20190221231804 32 278 2.0 6.0 0.00 0.00 0.00 71 1024.9